Pittsfield, MA

5:20 PM EST on January 19, 2017 (GMT -0500)
Pittsfield Municipal

Weather History for KPSF - September, 2013

Change the Weather History Date:

Friday, September 6, 2013

  Actual Average Record
Temperature  
Mean Temperature 52 °F 62 °F  
Max Temperature 63 °F 73 °F 86 °F (1930)
Min Temperature 40 °F 51 °F 37 °F (1962)
Degree Days  
Heating Degree Days 13 4  
Month to date heating degree days 22 21  
Since 1 July heating degree days 78 99  
Cooling Degree Days 0 1  
Month to date cooling degree days 14 9  
Year to date cooling degree days 414 279  
Growing Degree Days 1 (Base 50)    
Moisture  
Dew Point 41 °F    
Average Humidity 70    
Maximum Humidity 100    
Minimum Humidity 39    
Precipitation  
Precipitation 0.00 in 0.11 in 2.16 in (2008)
Month to date precipitation 0.98 0.62  
Year to date precipitation 29.08 30.40  
Sea Level Pressure  
Sea Level Pressure 30.19 in    
Wind  
Wind Speed 2 mph (West)    
Max Wind Speed 10 mph    
Max Gust Speed 15 mph    
Visibility 7 miles    
Events Fog    
T = Trace of Precipitation, MM = Missing Value Source: NWS Daily Summary

Daily Weather History Graph

Daily Weather History Graph

Search for Another Location

Airport or City:

Trip Planner

Search our weather history database for the weather conditions in past years. The results will help you decide how hot, cold, wet, or windy it might be!

Date:

Astronomy

Sep. 06, 2013 Rise Set
Actual Time 6:23 AM EDT 7:18 PM EDT
Civil Twilight 5:55 AM EDT 7:46 PM EDT
Nautical Twilight 5:21 AM EDT 8:20 PM EDT
Astronomical Twilight 4:45 AM EDT 8:56 PM EDT
Moon 7:35 AM EDT (9/6) 7:37 PM EDT (9/6)
Length of Visible Light 13h 51m
Length of Day
12h 54m
New Moon, 1% of the Moon is Illuminated
Sep 6
New Moon
Sep 12
First Quarter
Sep 19
Full
Sep 26
Last Quarter
Oct 4
New

Hourly Weather History & Observations

Time (EDT) Temp. Windchill Dew Point Humidity Pressure Visibility Wind Dir Wind Speed Gust Speed Precip Events Conditions
12:54 AM 46.0 °F - 42.1 °F 86% 30.15 in 10.0 mi Calm Calm - N/A   Clear
1:54 AM 44.1 °F - 42.1 °F 93% 30.15 in 10.0 mi Calm Calm - N/A   Clear
2:54 AM 42.1 °F 40.2 °F 41.0 °F 96% 30.17 in 10.0 mi West 3.5 mph - N/A   Clear
3:54 AM 41.0 °F - 39.0 °F 93% 30.18 in 10.0 mi Calm Calm - N/A   Clear
4:41 AM 39.2 °F - 39.2 °F 100% 30.22 in 10.0 mi Calm Calm - N/A   Partly Cloudy
4:54 AM 39.9 °F - 39.0 °F 97% 30.20 in 10.0 mi Calm Calm - N/A   Clear
5:13 AM 41.0 °F - 39.2 °F 93% 30.22 in 10.0 mi Calm Calm - N/A   Scattered Clouds
5:29 AM 39.2 °F - 39.2 °F 100% 30.22 in 10.0 mi Calm Calm - N/A   Mostly Cloudy
5:33 AM 41.0 °F - 39.2 °F 93% 30.22 in 1.8 mi Calm Calm - N/A   Mostly Cloudy
5:41 AM 41.0 °F - 39.2 °F 93% 30.21 in 0.8 mi Calm Calm - N/A   Overcast
5:52 AM 41.0 °F - 39.2 °F 93% 30.22 in 0.2 mi Calm Calm - N/A Fog Fog
5:54 AM 41.0 °F - 39.9 °F 96% 30.20 in 0.2 mi Calm Calm - N/A Fog Fog
6:26 AM 41.0 °F - 41.0 °F 100% 30.24 in 0.2 mi Calm Calm - N/A Fog Fog
6:44 AM 41.0 °F - 41.0 °F 100% 30.24 in 0.2 mi Calm Calm - N/A Fog Fog
6:54 AM 41.0 °F - 39.9 °F 96% 30.23 in 0.2 mi Calm Calm - N/A Fog Fog
7:54 AM 42.1 °F - 42.1 °F 100% 30.24 in 0.2 mi Calm Calm - N/A Fog Fog
8:15 AM 44.6 °F - 42.8 °F 93% 30.25 in 1.5 mi Calm Calm - N/A   Mostly Cloudy
8:17 AM 44.6 °F - 44.6 °F 100% 30.25 in 5.0 mi Calm Calm - N/A   Mostly Cloudy
8:28 AM 44.6 °F - 42.8 °F 93% 30.25 in 10.0 mi Calm Calm - N/A   Scattered Clouds
8:54 AM 48.0 °F - 45.0 °F 89% 30.23 in 10.0 mi Calm Calm - N/A   Clear
9:54 AM 53.1 °F - 43.0 °F 69% 30.24 in 10.0 mi Calm Calm - N/A   Clear
10:54 AM 57.9 °F - 37.9 °F 47% 30.23 in 10.0 mi NW 6.9 mph - N/A   Clear
11:54 AM 59.0 °F - 39.9 °F 49% 30.22 in 10.0 mi Variable 4.6 mph - N/A   Clear
12:54 PM 61.0 °F - 39.0 °F 44% 30.20 in 10.0 mi West 6.9 mph - N/A   Clear
1:54 PM 61.0 °F - 39.0 °F 44% 30.19 in 10.0 mi WSW 5.8 mph - N/A   Clear
2:54 PM 61.0 °F - 37.9 °F 42% 30.17 in 10.0 mi WNW 4.6 mph - N/A   Clear
3:54 PM 62.1 °F - 37.0 °F 39% 30.16 in 10.0 mi West 4.6 mph - N/A   Clear
4:54 PM 63.0 °F - 39.9 °F 43% 30.14 in 10.0 mi NNW 6.9 mph - N/A   Clear
5:54 PM 62.1 °F - 39.0 °F 43% 30.14 in 10.0 mi West 3.5 mph - N/A   Clear
6:54 PM 59.0 °F - 41.0 °F 51% 30.13 in 10.0 mi WSW 3.5 mph - N/A   Clear
7:54 PM 53.1 °F - 46.0 °F 77% 30.13 in 10.0 mi SW 3.5 mph - N/A   Clear
8:54 PM 48.9 °F - 46.0 °F 90% 30.13 in 10.0 mi Calm Calm - N/A   Clear
9:54 PM 46.9 °F - 44.1 °F 90% 30.12 in 10.0 mi Calm Calm - N/A   Clear
10:54 PM 46.0 °F - 44.1 °F 93% 30.11 in 10.0 mi Calm Calm - N/A   Clear
11:54 PM 45.0 °F - 44.1 °F 97% 30.09 in 10.0 mi Calm Calm - N/A   Clear